Overview Statistics Trail Chart Weather Telemetry Raw packets
 

This is the latest recevied weather packets stored in our database for station/object AB1AU. If no packets are shown the sender has not sent any weather packets the latest 10 day(s).

<< 99 100 101 102 103 104 105 >>
Time Temp. Humidity Pressure Rain* Wind** Luminosity Snow
1787874015 22.78° C 75% 1016.5 hPa 0 mm - 0 W/m² -
1787873713 22.78° C 75% 1016.3 hPa 0 mm - 0 W/m² -
1787873409 23.33° C 75% 1016.4 hPa 0 mm - 0 W/m² -
1787873103 23.33° C 75% 1016.4 hPa 0 mm - 1 W/m² -
1787872802 23.33° C 75% 1016.3 hPa 0 mm - 1 W/m² -
1787872498 23.33° C 75% 1016.4 hPa 0 mm - 1 W/m² -
1787872193 23.33° C 75% 1016.4 hPa 0 mm - 2 W/m² -
1787871893 23.89° C 75% 1016.6 hPa 0 mm - 3 W/m² -
1787871588 23.89° C 74% 1016.5 hPa 0 mm - 4 W/m² -
1787871284 23.89° C 74% 1016.5 hPa 0 mm - 5 W/m² -
1787870984 23.89° C 74% 1016.2 hPa 0 mm - 6 W/m² -
1787870684 23.89° C 74% 1016.4 hPa 0 mm - 7 W/m² -
1787870384 23.89° C 74% 1016.1 hPa 0 mm - 8 W/m² -
1787870080 23.89° C 73% 1016.4 hPa 0 mm - 9 W/m² -
1787869778 23.89° C 73% 1016.3 hPa 0 mm - 11 W/m² -
1787869474 24.44° C 73% 1016.3 hPa 0 mm - 9 W/m² -
1787869176 24.44° C 72% 1016.3 hPa 0 mm - 10 W/m² -
1787868867 24.44° C 72% 1016.4 hPa 0 mm - 17 W/m² -
1787868565 24.44° C 72% 1016.6 hPa 0 mm - 13 W/m² -
1787868265 24.44° C 72% 1016.5 hPa 0 mm - 13 W/m² -
1787867960 24.44° C 71% 1016.7 hPa 0 mm - 14 W/m² -
1787867656 24.44° C 72% 1016.4 hPa 0 mm - 27 W/m² -
1787867356 24.44° C 71% 1016.5 hPa 0 mm - 22 W/m² -
1787867052 24.44° C 71% 1016.7 hPa 0 mm - 20 W/m² -
1787866747 25° C 70% 1016.8 hPa 0 mm - 16 W/m² -

* Rain latest hour (hover to see other rain measurements)
** Current wind speed in m/s (hover to see current wind gust speed)